Probability
16 13 16 16 13 16 13 6 13 13 13 13 13 10 10 6 10 13 13 16 13 13 13 16 16 16 16 13 13 6 6 6 6 6 6 6 10 10 6 10 6 6 6
19 16 16 13 13 10 10 13 13 10 13 13 16 10 3 6 10 10 10 13 13 10 10 13 13 13 13 10 13 13 13 6 10 10 10 10 13 10 10 10 3 3 6
19 23 16 13 10 10 10 10 10 13 13 10 13 10 10 10 6 6 10 13 10 10 13 13 13 13 13 13 6 6 6 10 10 13 13 13 13 10 6 3 3 6 3
23 23 23 23 13 6 6 6 10 10 10 10 13 10 16 16 13 10 6 10 10 10 13 10 10 10 10 10 10 6 6 10 10 10 10 13 10 10 6 6 6 6 6
19 23 26 19 16 10 10 10 10 6 10 13 13 13 13 16 13 13 10 13 10 10 10 10 10 10 10 10 10 10 6 10 10 10 10 6 6 6 6 10 6 10 6
23 23 19 23 10 13 16 16 16 13 16 16 13 13 13 16 10 6 6 13 13 13 13 10 13 6 6 3 3 6 6 13 13 10 10 10 10 6 6 3 3 3 3
26 23 19 19 23 16 19 13 16 16 19 23 16 13 13 6 6 6 3 10 13 16 10 10 6 10 10 16 10 3 3 0 3 13 13 10 10 6 6 6 3 3 3
23 16 16 16 19 19 19 19 16 19 19 19 23 16 13 6 3 3 3 6 6 13 10 10 10 10 10 13 13 13 10 10 6 6 6 6 6 6 6 6 6 3 3
29 23 19 13 16 16 16 19 23 16 16 16 19 16 13 13 3 0 0 3 6 6 13 13 10 13 10 3 3 13 13 10 10 6 6 6 3 3 3 3 3 3 3
29 29 23 19 23 13 13 13 16 16 16 16 16 16 13 16 6 3 0 3 3 6 10 10 3 3 3 3 3 10 13 10 10 10 10 0 0 0 0 3 3 3 3
35 26 23 19 16 16 13 13 13 13 13 16 16 10 10 16 10 3 0 3 6 6 6 13 10 0 0 0 0 3 6 10 10 10 6 6 6 6 3 0 0 0 3
29 26 16 16 16 16 13 13 13 16 16 16 10 10 10 16 10 6 3 0 3 6 6 13 13 0 0 0 0 0 0 0 3 3 6 6 3 10 3 3 0 0 0
26 23 23 19 16 13 19 13 13 13 16 13 13 13 16 10 10 3 0 0 0 3 10 6 3 0 0 0 0 0 0 0 0 6 6 6 3 3 3 6 6 3 0
19 19 19 19 6 10 13 13 13 13 13 13 13 13 16 16 16 6 6 0 0 0 3 3 0 0 0 0 0 0 0 0 3 6 6 6 3 0 3 3 6 6 3
16 19 19 19 16 13 6 6 6 6 16 10 10 13 13 10 10 10 10 6 6 3 3 0 0 0 0 0 0 0 0 0 0 3 6 3 6 0 0 0 0 3 3
19 19 19 16 16 16 19 10 3 3 3 3 3 6 6 6 3 0 0 0 0 0 0 3 3 3 3 3 3 3 0 0 3 6 6 3 3 3 3 3 0 0 0
13 10 13 16 13 13 10 16 10 6 3 3 0 0 0 0 0 0 0 0 0 0 0 6 6 3 3 3 3 3 3 3 3 0 3 3 3 3 3 3 3 3 3
10 10 6 10 6 6 10 13 10 13 10 10 0 0 0 0 0 0 0 0 0 0 0 6 6 3 3 3 6 3 3 0 0 0 0 3 3 3 3 3 6 6 3
10 10 13 6 6 6 6 6 6 6 6 10 6 6 0 0 0 0 0 0 3 3 0 3 6 6 6 3 3 3 6 6 3 3 3 3 3 6 6 6 6 6 3
10 6 6 6 6 10 10 6 6 6 6 6 10 10 0 0 0 0 0 0 0 3 3 3 3 3 3 6 3 0 0 0 0 3 3 6 6 6 6 6 6 6 6
10 6 3 6 10 10 10 6 6 6 10 10 10 6 3 0 0 0 3 0 0 3 6 3 3 3 3 0 0 0 0 0 0 0 0 0 0 3 3 3 3 3 6
10 10 6 10 16 13 13 10 6 10 10 10 10 6 0 3 6 6 6 0 0 0 0 3 3 0 0 0 0 0 0 0 0 0 0 0 0 3 3 3 3 0 0
6 6 10 10 13 13 10 13 13 13 13 10 10 10 6 3 6 3 3 3 3 0 0 3 3 0 0 0 0 0 0 0 0 0 0 0 3 3 3 3 0 0 0
3 3 6 6 10 10 16 16 16 13 13 13 13 6 3 3 0 0 0 0 0 0 0 0 0 0 0 3 0 0 0 0 0 0 0 0 3 0 3 3 0 0 0
0 3 3 3 6 3 10 16 13 13 13 10 10 6 3 0 0 0 0 0 0 0 0 0 3 3 3 3 0 0 0 0 0 0 0 0 3 3 0 0 0 0 0
3 3 3 3 0 3 6 6 10 6 6 10 6 6 0 0 0 0 0 0 0 0 0 0 3 3 3 0 0 0 0 0 0 0 0 0 0 0 0 0 0 0 0
Height
5886 5886 5885 5885 5884 5883 5882 5881 5880 5879 5879 5878 5878 5877 5877 5876 5876 5875 5874 5874 5873 5872 5871 5870 5870 5869 5868 5867 5866 5865 5864 5863 5862 5861 5860 5858 5857 5856 5854 5853 5851 5849 5848
5885 5884 5884 5883 5882 5882 5881 5880 5879 5878 5877 5876 5876 5876 5875 5874 5874 5873 5872 5872 5871 5870 5869 5868 5867 5867 5866 5865 5864 5863 5862 5861 5860 5858 5857 5856 5854 5853 5851 5849 5848 5846 5844
5883 5882 5882 5881 5880 5880 5879 5878 5877 5876 5875 5874 5874 5873 5873 5872 5872 5871 5870 5869 5869 5868 5867 5866 5865 5864 5863 5862 5861 5860 5859 5858 5857 5855 5854 5852 5851 5850 5848 5846 5844 5842 5840
5881 5880 5880 5879 5878 5877 5876 5875 5875 5874 5873 5872 5872 5871 5871 5870 5869 5868 5868 5867 5866 5865 5864 5863 5862 5861 5860 5859 5858 5857 5855 5854 5853 5852 5850 5848 5847 5845 5844 5842 5839 5837 5835
5879 5877 5877 5876 5875 5875 5874 5873 5872 5871 5871 5870 5869 5869 5868 5867 5866 5865 5865 5864 5863 5862 5861 5859 5858 5857 5856 5855 5854 5853 5851 5850 5849 5848 5846 5844 5842 5841 5839 5837 5834 5832 5830
5876 5874 5873 5873 5872 5871 5871 5870 5869 5869 5868 5867 5867 5866 5865 5864 5863 5862 5861 5860 5859 5858 5857 5856 5854 5853 5852 5851 5850 5848 5847 5846 5845 5843 5841 5839 5838 5836 5834 5831 5829 5827 5825
5872 5871 5870 5869 5868 5867 5867 5867 5866 5865 5865 5864 5863 5862 5861 5860 5859 5858 5857 5856 5855 5854 5852 5851 5850 5849 5847 5846 5845 5843 5842 5840 5839 5838 5836 5834 5832 5830 5828 5825 5823 5820 5818
5868 5867 5866 5865 5864 5864 5863 5863 5862 5862 5861 5860 5859 5858 5857 5856 5855 5854 5852 5851 5851 5849 5848 5846 5845 5844 5842 5841 5839 5838 5837 5835 5834 5832 5831 5829 5827 5824 5822 5820 5817 5815 5812
5862 5862 5861 5860 5859 5858 5858 5858 5857 5857 5856 5855 5854 5854 5853 5852 5851 5849 5848 5847 5845 5844 5843 5841 5840 5838 5837 5835 5834 5833 5831 5830 5828 5826 5825 5823 5820 5818 5816 5814 5811 5809 5806
5856 5856 5855 5855 5854 5854 5853 5853 5852 5852 5851 5850 5849 5849 5848 5847 5846 5845 5843 5842 5841 5839 5837 5836 5834 5833 5831 5829 5828 5827 5826 5824 5822 5820 5819 5816 5814 5812 5810 5808 5805 5802 5799
5850 5849 5849 5848 5848 5847 5847 5847 5846 5846 5845 5844 5844 5843 5843 5842 5841 5840 5838 5837 5836 5834 5832 5830 5829 5827 5825 5824 5822 5821 5820 5818 5816 5814 5812 5810 5808 5806 5803 5801 5798 5796 5793
5843 5842 5842 5841 5841 5841 5840 5840 5840 5839 5838 5838 5838 5837 5836 5836 5835 5834 5833 5831 5830 5828 5827 5825 5823 5821 5819 5817 5816 5815 5813 5811 5810 5808 5806 5804 5801 5799 5796 5794 5791 5789 5786
5835 5835 5834 5833 5833 5833 5833 5833 5832 5832 5831 5831 5831 5830 5830 5829 5828 5827 5826 5825 5823 5822 5820 5819 5817 5815 5813 5811 5810 5808 5807 5805 5803 5801 5799 5797 5794 5792 5789 5787 5784 5781 5778
5827 5827 5826 5826 5825 5825 5825 5825 5825 5824 5824 5824 5823 5823 5823 5822 5821 5820 5819 5818 5817 5815 5814 5812 5810 5808 5807 5805 5803 5802 5800 5798 5796 5794 5792 5789 5787 5784 5782 5779 5776 5774 5771
5818 5818 5818 5818 5816 5816 5817 5817 5816 5816 5815 5816 5816 5815 5815 5815 5814 5813 5812 5811 5809 5808 5806 5805 5803 5802 5800 5798 5796 5794 5792 5790 5788 5786 5784 5781 5779 5776 5774 5771 5768 5765 5763
5809 5809 5809 5809 5809 5808 5808 5808 5807 5806 5806 5806 5806 5806 5806 5806 5805 5804 5803 5803 5801 5800 5798 5797 5795 5793 5792 5790 5788 5786 5784 5782 5780 5777 5775 5773 5770 5768 5765 5762 5759 5757 5754
5800 5800 5800 5800 5801 5800 5800 5799 5799 5799 5798 5797 5797 5797 5797 5797 5796 5795 5794 5794 5793 5791 5790 5789 5787 5785 5783 5781 5779 5777 5775 5773 5771 5768 5766 5764 5761 5759 5756 5753 5751 5748 5745
5790 5790 5790 5790 5791 5791 5790 5790 5790 5790 5790 5789 5788 5788 5788 5787 5787 5786 5785 5784 5783 5782 5781 5780 5778 5776 5774 5772 5770 5768 5765 5763 5761 5759 5757 5754 5752 5749 5747 5745 5742 5740 5737
5780 5780 5780 5780 5780 5781 5780 5780 5780 5780 5780 5779 5779 5778 5778 5777 5776 5775 5774 5774 5773 5772 5771 5770 5768 5766 5764 5762 5760 5758 5756 5754 5752 5750 5747 5745 5742 5740 5738 5736 5733 5730 5728
5770 5770 5770 5770 5770 5770 5770 5770 5770 5769 5769 5769 5769 5768 5767 5766 5766 5765 5764 5763 5762 5761 5760 5759 5757 5756 5754 5752 5750 5748 5746 5744 5742 5740 5737 5735 5733 5731 5729 5726 5724 5721 5719
5759 5760 5760 5760 5760 5759 5759 5759 5759 5759 5758 5758 5758 5757 5757 5756 5755 5754 5753 5752 5751 5750 5749 5748 5747 5745 5743 5741 5740 5738 5736 5734 5732 5729 5727 5725 5723 5721 5719 5717 5715 5712 5709
5749 5749 5749 5749 5749 5749 5749 5748 5748 5748 5747 5747 5747 5746 5745 5744 5744 5743 5742 5742 5741 5739 5738 5737 5736 5734 5733 5731 5729 5727 5725 5723 5721 5719 5717 5714 5712 5711 5709 5707 5705 5702 5700
5738 5738 5738 5738 5738 5738 5738 5738 5737 5737 5736 5736 5735 5735 5734 5733 5733 5733 5732 5731 5730 5729 5727 5726 5725 5724 5722 5720 5718 5716 5714 5712 5710 5708 5706 5704 5702 5700 5698 5696 5694 5692 5690
5727 5727 5727 5727 5727 5727 5726 5726 5726 5725 5725 5724 5724 5723 5723 5722 5722 5722 5721 5720 5719 5718 5717 5715 5714 5713 5711 5709 5707 5705 5703 5701 5699 5697 5695 5693 5691 5690 5688 5686 5684 5681 5679
5715 5716 5715 5715 5715 5715 5715 5714 5714 5714 5713 5713 5713 5713 5712 5712 5711 5711 5710 5709 5708 5707 5706 5705 5703 5701 5700 5698 5696 5694 5692 5690 5688 5687 5684 5683 5681 5679 5677 5675 5673 5671 5669
5705 5704 5704 5704 5704 5703 5703 5703 5703 5703 5703 5702 5702 5702 5702 5701 5700 5700 5699 5698 5697 5696 5695 5693 5692 5690 5689 5687 5685 5683 5682 5680 5678 5676 5674 5672 5670 5668 5667 5665 5663 5661 5658
Wind_Speed
5 5 6 6 6 6 5 5 6 7 7 6 6 6 6 6 7 7 7 8 8 8 8 8 8 8 8 8 8 9 9 10 10 10 11 11 11 12 13 13 14 14 15
8 7 7 7 7 7 7 7 7 7 7 6 6 7 7 8 9 9 9 9 9 9 9 9 9 9 9 9 10 11 11 11 11 12 12 13 13 14 14 15 15 15 16
9 9 9 9 9 9 9 9 8 8 7 6 6 7 8 9 10 10 10 9 9 10 10 10 10 10 11 11 11 12 12 13 13 13 14 14 15 16 16 16 17 17 18
11 10 10 11 11 11 11 10 9 8 8 8 8 9 9 9 10 10 10 10 11 11 12 12 12 12 12 12 13 13 13 14 14 15 15 16 16 17 18 19 19 19 19
12 12 13 12 11 11 11 10 10 10 10 9 9 10 10 10 11 11 11 12 12 13 13 13 14 14 14 14 15 15 15 15 16 16 17 18 18 19 20 21 21 21 21
14 14 14 14 13 12 13 12 12 12 11 11 11 11 11 11 12 13 13 13 14 14 15 15 15 15 16 15 15 16 16 17 17 18 19 19 20 21 21 21 22 22 23
16 15 15 15 15 15 14 14 14 14 13 13 13 13 13 13 13 14 15 15 16 17 16 16 16 17 16 16 16 17 17 18 18 19 20 21 21 22 22 23 23 24 24
18 17 17 17 17 17 17 16 16 16 16 15 14 15 15 15 16 17 17 18 18 18 18 18 18 18 19 18 19 18 18 18 19 20 21 23 23 24 24 23 24 24 24
19 18 19 19 18 18 18 18 18 18 18 17 17 16 17 17 17 18 18 19 19 19 19 20 20 20 20 20 20 20 19 20 21 21 22 23 24 24 24 24 24 25 25
20 20 20 20 19 19 19 19 19 19 19 19 18 17 17 17 18 18 19 19 19 19 19 20 21 21 21 21 21 20 20 20 21 21 22 23 24 24 24 25 25 26 26
23 22 21 21 21 21 21 21 21 20 20 20 19 19 19 19 19 19 20 20 20 20 20 21 21 21 21 21 22 21 21 21 22 23 23 24 25 25 25 26 26 27 27
24 24 23 23 23 23 23 23 23 22 21 21 21 21 21 21 21 20 21 22 23 22 22 22 21 22 21 22 22 22 23 23 24 25 25 25 26 27 27 27 28 28 27
27 26 26 26 25 25 25 25 25 24 23 23 22 22 21 21 21 22 21 22 23 23 23 22 22 23 23 24 24 24 25 25 26 26 27 27 28 28 28 28 28 28 28
29 28 28 28 28 27 27 27 26 25 25 24 23 22 23 23 23 23 24 24 24 24 25 24 24 25 26 26 26 27 27 27 27 27 28 29 29 30 29 29 29 29 29
30 30 30 30 28 28 28 28 28 28 27 27 26 25 25 25 25 26 26 26 26 26 27 27 27 27 28 28 28 29 30 30 30 30 30 30 30 30 30 30 31 31 31
31 30 31 31 31 30 28 28 28 28 27 27 28 27 27 27 27 28 29 29 29 29 29 29 29 30 31 30 30 31 31 32 32 32 31 31 31 31 31 31 31 31 30
34 34 33 33 32 31 30 30 29 29 29 28 28 29 29 30 30 30 31 31 31 31 31 31 31 32 32 32 32 32 32 33 33 33 32 33 34 33 31 30 30 30 30
35 35 34 33 33 33 32 31 31 30 30 30 30 31 32 33 33 33 33 34 33 33 33 33 33 34 34 34 34 34 34 34 34 34 34 34 34 32 31 31 31 31 30
35 34 34 33 32 32 32 32 32 32 33 32 32 33 33 33 34 35 35 35 34 34 34 34 34 35 35 36 35 35 35 35 35 35 35 35 34 33 32 32 32 31 31
35 34 34 33 33 33 33 33 33 34 34 34 34 35 35 34 35 36 36 35 35 35 35 35 35 35 36 36 36 35 35 35 35 36 36 35 34 33 33 32 32 31 32
36 36 36 35 35 35 35 34 35 34 35 35 35 36 36 36 35 35 35 35 35 35 35 35 35 35 36 35 35 35 36 36 37 37 35 34 34 34 34 33 33 32 32
37 36 36 36 35 36 35 34 34 35 36 36 36 37 37 36 36 35 35 35 35 36 35 35 34 34 35 36 36 35 35 35 36 36 35 35 35 35 34 34 33 33 32
35 35 36 36 37 37 36 36 36 36 36 37 36 37 36 36 35 35 35 35 36 36 36 35 34 34 35 35 35 36 36 36 36 35 35 34 34 34 34 34 33 33 33
35 35 35 36 36 36 37 37 36 36 36 36 35 35 35 35 35 35 35 36 36 36 35 35 34 35 36 36 36 36 36 35 35 34 34 34 34 34 33 34 33 33 33
34 34 34 34 34 34 35 35 34 35 35 34 34 34 34 34 35 35 35 35 36 35 35 35 35 34 35 35 35 35 34 34 34 34 34 34 34 34 34 33 32 32 32
33 33 33 32 32 32 32 32 32 32 32 33 33 33 33 34 35 35 35 36 36 36 36 35 34 33 33 33 33 33 34 34 34 34 34 34 33 33 32 31 31 32 32
Wind_Direction
299 295 301 300 296 295 296 298 298 296 288 284 284 286 290 291 289 287 288 291 296 297 295 295 297 302 303 301 297 300 303 303 303 305 305 306 308 310 310 310 310 308 306
293 295 297 296 294 291 292 293 290 290 285 280 282 282 286 286 286 287 287 286 291 294 292 291 294 297 298 298 297 297 300 301 301 302 301 302 305 309 310 307 306 305 304
292 291 293 291 289 286 288 289 288 288 291 283 281 281 283 281 284 288 289 289 291 294 291 288 291 294 293 295 295 296 297 298 300 302 301 301 302 304 306 307 306 304 304
290 283 289 290 286 283 284 284 284 287 292 287 285 286 286 283 285 288 290 289 289 293 294 291 290 288 289 291 294 294 297 297 297 300 301 300 300 300 302 305 304 302 305
296 288 288 289 283 281 282 284 287 288 291 291 287 287 286 284 283 285 287 286 288 290 293 294 292 289 289 291 292 293 296 296 295 295 296 298 298 298 301 303 303 305 305
292 293 289 288 284 282 283 282 283 284 288 288 286 286 286 286 285 286 288 290 291 291 292 293 292 290 289 289 289 291 293 293 294 295 295 296 298 298 301 304 304 303 302
287 286 286 287 283 278 279 280 281 280 282 284 285 286 288 286 286 288 291 290 292 292 291 291 293 293 291 289 288 291 291 292 292 293 294 294 295 298 301 301 301 302 302
284 284 283 283 282 281 277 276 277 279 279 281 281 284 286 286 286 287 290 293 293 292 293 293 292 292 292 291 291 293 293 294 295 295 296 294 296 298 299 301 302 302 303
284 283 283 282 281 281 277 277 277 277 278 280 280 280 283 285 286 287 289 292 293 293 294 294 294 293 291 290 290 291 293 294 295 297 297 298 300 301 302 304 305 304 303
280 279 278 280 279 278 277 277 278 279 279 278 278 279 281 284 287 290 293 296 297 296 295 296 295 294 293 291 290 292 294 295 296 298 300 301 301 301 302 303 304 304 304
275 275 276 278 278 277 276 277 278 279 279 279 280 281 281 282 285 289 292 294 296 297 296 296 296 295 293 291 291 292 293 293 295 296 298 301 302 301 301 301 302 304 306
271 272 274 274 275 275 275 277 277 276 275 277 277 279 281 280 281 285 289 292 292 293 296 296 296 295 293 293 293 294 294 293 293 294 295 297 299 299 300 300 302 304 305
270 272 273 274 275 275 275 275 275 272 272 273 275 277 278 281 281 282 286 290 293 294 296 296 296 296 295 295 295 295 295 295 295 294 293 293 295 297 298 299 300 302 303
268 269 271 274 276 276 275 275 275 273 272 272 274 275 276 278 281 283 286 288 292 293 293 292 293 294 295 294 294 296 297 297 296 296 295 294 294 295 296 298 298 298 300
266 267 269 272 274 274 275 275 274 273 273 273 272 274 276 277 281 283 285 286 288 291 291 289 289 293 294 294 294 294 295 295 295 296 296 295 294 294 295 296 297 297 298
266 267 269 271 273 276 274 275 274 276 275 273 272 273 275 277 279 282 283 284 285 288 289 290 292 291 292 293 293 294 294 294 294 295 295 295 295 294 294 294 296 298 298
265 268 269 270 271 273 274 274 275 276 276 276 277 276 276 276 277 280 281 282 283 286 287 288 290 292 291 292 292 292 292 293 293 294 294 295 295 294 294 294 295 297 298
267 269 270 270 271 271 272 273 274 275 275 275 277 277 278 277 276 278 279 280 281 284 285 286 288 289 290 291 292 292 292 291 292 293 293 295 295 293 292 294 295 294 296
268 270 272 272 270 270 271 272 273 273 275 276 275 276 278 277 277 278 279 279 281 283 285 285 287 288 289 290 290 291 293 293 292 292 292 294 293 292 293 293 293 291 293
267 269 272 272 272 271 271 271 271 273 275 277 277 276 277 278 278 279 280 280 281 283 283 284 285 286 288 288 288 288 290 292 292 292 291 290 291 291 292 291 290 291 293
266 268 271 272 273 273 273 272 273 275 276 276 277 278 278 278 279 278 279 280 281 282 282 283 284 285 286 287 288 289 290 291 292 292 290 289 289 289 290 291 290 292 293
267 269 270 271 272 273 274 274 275 274 274 274 276 277 277 278 278 277 278 278 279 280 281 282 283 285 285 286 287 288 289 291 292 292 290 289 289 289 289 289 289 290 292
268 270 271 271 271 272 273 275 275 274 274 275 275 276 276 277 276 276 277 278 279 280 281 281 282 284 285 285 286 288 290 291 291 290 289 289 290 289 289 288 289 289 290
268 270 271 271 271 272 272 272 272 272 273 274 275 275 276 276 276 276 278 278 278 280 280 281 282 283 284 285 286 289 289 288 289 289 289 289 290 290 289 289 289 290 291
270 271 271 272 273 273 274 273 272 273 274 275 275 275 275 276 276 276 277 278 279 279 279 281 283 284 285 285 286 288 289 288 287 288 288 288 288 289 290 290 289 290 291
270 272 274 274 274 274 274 274 273 274 275 275 275 276 277 276 276 277 278 278 279 280 280 280 281 283 284 285 286 288 288 288 287 287 287 288 287 287 288 289 290 290 291